TIANMU-1 09

Last updated on Mon Jun 22 2026 00:02:46 GMT+0000 (Coordinated Universal Time)

1 57401U 23101C 26172.49791285 .00005141 00000+0 18018-3 0 9998 2 57401 97.2536 222.2510 0004785 117.1207 243.0522 15.29886210162300
UTC large
Height (km)
Speed (km/s)
/
Latitude / Longitude
Inclination (degrees)
Orbital Period (minutes)
Azimuth
Elevation
Range (km)
Doppler Factor

Next 0 passes for location: London (51.5072 / 0.1276)

No passes found over London.
TIANMU-1 09